{"data":{"norad_id":87042,"intl_designator":"","name":"UNKNOWN","alt_names":[],"object_type":"UNKNOWN","status":"UNKNOWN","operator":null,"country":null,"launch_date":null,"launch_site_code":null,"launch_vehicle":null,"mission":null,"orbit_class":"UNKNOWN","rcs_meters":null,"size_class":null,"mass_kg":null,"dimensions":null,"purposes":[],"wikipedia_slug":null,"has_3d_model":false,"image_url":null,"decayed_at":null,"tle_current":{"epoch":"2026-09-17T08:57:44.475552Z","epoch_age_seconds":284684,"freshness":"STALE","line1":"1 87042U          26260.37343143  .00000401  00000+0  26034-3 0  9997","line2":"2 87042  98.6851 298.1871 0043492  30.5956 329.7737 14.07515349593156","mean_motion":14.07515349,"eccentricity":0.0043492,"inclination_deg":98.6851,"raan_deg":298.1871,"arg_perigee_deg":30.5956,"mean_anomaly_deg":329.7737,"bstar":0.00026034,"rev_number":59315,"period_min":102.307942931,"perigee_km":836.37226248837,"apogee_km":899.40107476756,"semimajor_km":7246.023668628,"source":"CELESTRAK","updated_at":"2026-09-20T09:00:32.449327Z"}}}